TimeEDT,TemperatureF,Dew PointF,Humidity,Sea Level PressureIn,VisibilityMPH,Wind Direction,Wind SpeedMPH,Gust SpeedMPH,PrecipitationIn,Events,Conditions,WindDirDegrees,DateUTC
12:00 AM,39.9,19.0,43,29.92,-9999.0,West,6.9,-,N/A,,Clear,280,2013-03-23 04:00:00
1:00 AM,37.9,19.0,47,29.92,-9999.0,West,10.4,-,N/A,,Clear,280,2013-03-23 05:00:00
2:00 AM,39.0,19.0,45,29.92,-9999.0,West,8.1,-,N/A,,Clear,270,2013-03-23 06:00:00
3:00 AM,37.0,19.0,48,29.91,-9999.0,West,6.9,-,N/A,,Clear,270,2013-03-23 07:00:00
4:00 AM,32.0,19.0,59,29.90,-9999.0,West,5.8,-,N/A,,Clear,270,2013-03-23 08:00:00
5:00 AM,35.1,19.0,52,29.91,-9999.0,West,5.8,-,N/A,,Clear,270,2013-03-23 09:00:00
6:00 AM,37.0,19.0,48,29.91,-9999.0,West,6.9,-,N/A,,Clear,270,2013-03-23 10:00:00
7:00 AM,36.0,18.0,48,29.92,-9999.0,West,5.8,-,N/A,,Clear,260,2013-03-23 11:00:00
8:00 AM,39.9,19.9,45,29.93,-9999.0,West,9.2,-,N/A,,Clear,280,2013-03-23 12:00:00
9:00 AM,43.0,19.0,38,29.91,-9999.0,WNW,13.8,-,N/A,,Clear,290,2013-03-23 13:00:00
10:00 AM,46.9,18.0,32,29.91,-9999.0,WNW,18.4,26.5,N/A,,Clear,290,2013-03-23 14:00:00
11:00 AM,48.0,19.0,32,29.90,-9999.0,WNW,18.4,26.5,N/A,,Clear,290,2013-03-23 15:00:00
12:00 PM,51.1,19.0,28,29.90,-9999.0,West,17.3,27.6,N/A,,Clear,280,2013-03-23 16:00:00
1:00 PM,54.0,18.0,24,29.87,-9999.0,NW,15.0,24.2,N/A,,Partly Cloudy,310,2013-03-23 17:00:00
2:00 PM,52.0,18.0,26,29.86,-9999.0,NNW,10.4,21.9,N/A,,Scattered Clouds,330,2013-03-23 18:00:00
3:00 PM,54.0,18.0,24,29.84,-9999.0,NW,10.4,20.7,N/A,,Scattered Clouds,310,2013-03-23 19:00:00
4:00 PM,54.0,18.0,24,29.83,-9999.0,WNW,10.4,28.8,N/A,,Partly Cloudy,300,2013-03-23 20:00:00
7:00 PM,52.0,18.0,26,29.87,-9999.0,WNW,9.2,16.1,N/A,,Clear,300,2013-03-23 23:00:00
8:00 PM,48.0,18.0,30,29.89,-9999.0,NW,5.8,-,N/A,,Clear,310,2013-03-24 00:00:00
9:00 PM,42.1,18.0,38,29.91,-9999.0,Variable,3.5,-,N/A,,Clear,0,2013-03-24 01:00:00
10:00 PM,46.0,19.0,34,29.93,-9999.0,WNW,5.8,-,N/A,,Clear,300,2013-03-24 02:00:00
11:00 PM,44.1,18.0,35,29.94,-9999.0,WNW,4.6,-,N/A,,Clear,290,2013-03-24 03:00:00